• MPC Preparation (Info)

  • MPEC 2016-G82 : 2016 GV2

    The following Minor Planet Electronic Circular may be linked-to from your own Web pages, but must not otherwise be redistributed electronically.

    A form allowing access to any MPEC is at the bottom of this page.


    Read MPEC 2016-G81 Read MPEC 2016-G83


    M.P.E.C. 2016-G82                                Issued 2016 Apr. 5, 15:25 UT
    
         The Minor Planet Electronic Circulars contain information on unusual
             minor planets and routine data on comets.  They are published
        on behalf of Division F of the International Astronomical Union by the
              Minor Planet Center, Smithsonian Astrophysical Observatory,
                              Cambridge, MA 02138, U.S.A.
    
                 Prepared using the Tamkin Foundation Computer Network
    
                                  MPC@CFA.HARVARD.EDU
                URL https://www.minorplanetcenter.net/    ISSN 1523-6714
    
                                       2016 GV2
    
    Observations:
         K16G02V* C2016 04 03.31102 10 25 52.678-15 33 43.00         21.0 wLEG082F51
         K16G02V  C2016 04 03.32202 10 25 51.305-15 35 34.65         20.9 wLEG082F51
         K16G02V  C2016 04 03.33302 10 25 49.909-15 37 25.60         20.8 wLEG082F51
         K16G02V KC2016 04 03.90574310 24 55.43 -17 13 24.5          21.8 RqEG082K91
         K16G02V KC2016 04 03.91143310 24 54.74 -17 14 22.6          21.3 RqEG082K91
         K16G02V KC2016 04 03.91727910 24 54.05 -17 15 22.2          21.7 RqEG082K91
         K16G02V  C2016 04 04.14853 10 24 36.80 -17 56 27.5          20.6 RoEG082926
         K16G02V  C2016 04 04.15149 10 24 36.47 -17 56 57.7          21.1 VqEG082I52
         K16G02V  C2016 04 04.15259 10 24 36.31 -17 57 09.2          20.2 RoEG082926
         K16G02V  C2016 04 04.15295 10 24 36.25 -17 57 13.8          21.2 VqEG082I52
         K16G02V KC2016 04 04.15483 10 24 36.07 -17 57 32.7          20.2 RoEG082291
         K16G02V  C2016 04 04.15586 10 24 35.88 -17 57 43.5          21.8 VqEG082I52
         K16G02V KC2016 04 04.15634 10 24 35.87 -17 57 48.0          19.4 RoEG082291
         K16G02V  C2016 04 04.15666 10 24 35.81 -17 57 51.2          20.6 RoEG082926
         K16G02V KC2016 04 04.15791 10 24 35.68 -17 58 04.3          19.9 RoEG082291
         K16G02V KC2016 04 04.35688 10 24 17.62 -18 30 45.5          21.2 RtEG082474
         K16G02V KC2016 04 04.36070 10 24 17.19 -18 31 26.1          21.5 RtEG082474
         K16G02V KC2016 04 04.36510 10 24 16.68 -18 32 11.9          21.4 RtEG082474
         K16G02V _C2016 04 04.43945910 24 04.798-18 46 25.92         20.1 RtEG082568
         K16G02V _C2016 04 04.44049810 24 04.669-18 46 36.59         20.2 RtEG082568
         K16G02V _C2016 04 04.44153310 24 04.546-18 46 47.29         20.2 RtEG082568
         K16G02V KC2016 04 05.49346 10 22 29.44 -21 49 51.7          21   RtEG082474
         K16G02V KC2016 04 05.49645 10 22 29.06 -21 50 22.5                tEG082474
         K16G02V KC2016 04 05.49899 10 22 28.74 -21 50 49.8          21   RtEG082474
    
    Observer details:
    291 LPL/Spacewatch II.  Observer R. A. Mastaler.  1.8-m f/2.7 reflector + CCD.
    474 Mount John Observatory, Lake Tekapo.  Observers A. C. Gilmore,
        P. M. Kilmartin.  Measurer P. M. Kilmartin.  1.0-m f/7.7 reflector + CCD.
    568 Mauna Kea.  Observers R. J. Wainscoat, C. Wipper.  Measurers M. Micheli,
        R. J. Wainscoat.  3.6-m Canada-France-Hawaii Telescope + CCD.
    926 Tenagra II Observatory.  Observers M. Schwartz, P. R. Holvorcem.  Measurer
        M. Schwartz.  0.81-m f/7 Ritchey-Chretien + CCD.
    F51 Pan-STARRS 1, Haleakala.  Observers B. Gibson, T. Goggia, N. Primak,
        A. Schultz, M. Willman.  Measurers K. Chambers, S. Chastel, L. Denneau,
        H. Flewelling, M. Huber, E. Lilly, E. Magnier, R. Wainscoat, C. Waters,
        R. Weryk.  1.8-m Ritchey-Chretien + CCD.
    I52 Steward Observatory, Mt. Lemmon Station.  Observer A. R. Gibbs.  Measurers
        E. J. Christensen, D. C. Fuls, A. R. Gibbs, A. D. Grauer, J. A. Johnson,
        R. A. Kowalski, S. M. Larson, G. J. Leonard, R. G. Matheny, R. L. Seaman,
        F. C. Shelly.  1.0-m reflector + CCD.
    K91 Sutherland-LCOGT A.  Observers T. Lister, S. Greenstreet, E. Gomez.
        Measurer S. Greenstreet.  1.0-m f/8 Ritchey-Chretien + CCD.
    
    Orbital elements:
    2016 GV2                                                 Earth MOID = 0.0960 AU
    Epoch 2016 Jan. 13.0 TT = JDT 2457400.5                 MPC
    M 336.76960              (2000.0)            P               Q
    n   0.23127042     Peri.  212.59719     -0.83997505     +0.54262415
    a   2.6285888      Node     0.27104     -0.44346816     -0.68545033
    e   0.5966283      Incl.   11.83500     -0.31269459     -0.48550682
    P   4.26           H   24.2           G   0.15           U   7
    Residuals in seconds of arc
    160403 F51  0.1+  0.2+    160404 926  0.1+  0.3-    160404 474  0.3+  0.5-
    160403 F51  0.1+  0.2-    160404 I52  0.3+  0.2-    160404 474  0.3+  0.4-
    160403 F51  0.2-  0.0     160404 291  0.1-  0.1-    160404 568  0.2-  0.1+
    160403 K91  0.1+  0.0     160404 I52  0.0   0.3+    160404 568  0.3-  0.1+
    160403 K91  0.1-  0.0     160404 291  0.4-  0.2+    160404 568  0.3-  0.1+
    160403 K91  0.0   0.0     160404 926  0.1+  0.0     160405 474  0.5+  0.4-
    160404 926  0.1+  0.7-    160404 291  0.4-  0.2+    160405 474  0.0   0.4+
    160404 I52  0.9+  0.8+    160404 474  0.1+  0.3+    160405 474  0.3-  0.1-
    
    Ephemeris:
    2016 GV2                 a,e,i = 2.63, 0.60, 12                  q = 1.0603
    Date    TT    R. A. (2000) Decl.     Delta      r     Elong.  Phase     V
    2016 03 06    11 02 55.8 +25 08 49   0.2368  1.2180   160.5    15.8    22.4
    ...
    2016 03 21    10 45 18.6 +12 18 52   0.1527  1.1384   157.2    19.8    21.4
    ...
    2016 03 29    10 33 52.2 -02 03 55   0.1212  1.1057   150.7    26.3    21.0
    ...
    2016 04 04    10 24 48.7 -17 29 47   0.1071  1.0865   141.9    34.6    21.0
    2016 04 05    10 23 16.8 -20 23 17   0.1058  1.0838   140.1    36.3    21.0
    2016 04 06    10 21 44.8 -23 20 21   0.1047  1.0812   138.3    38.0    21.0
    ...
    2016 04 12    10 12 33.6 -41 19 19   0.1048  1.0688   127.0    48.5    21.3
    ...
    2016 04 20    10 00 28.6 -61 52 05   0.1198  1.0608   114.9    59.2    21.8
    ...
    2016 05 05    09 40 51.1 -84 26 39   0.1715  1.0725   107.4    63.8    22.8
    
    A. U. Tomatic                (C) Copyright 2016 MPC           M.P.E.C. 2016-G82
    

    Read MPEC 2016-G81 Read MPEC 2016-G83


    MPEC number:

    Enter an MPEC number in one of the following forms:

    • 1997-B01 (the full form)
    • J97B01 (the packed version of the full form)
    • B01 (the abbreviated form)